Temperature
-2 -2 -2 -2 -2 -2 -2 -2 -2 -2 -2 -2 -2 -2 -2 -1 -1 -2 -2 -2 -1 -1 -1 -1 -1 -1 -1 -1 -1 -1 -1 -1 -2 -1 -1 -1 -1 -0 0 0 0 0 1
-2 -2 -2 -3 -3 -3 -3 -3 -3 -3 -3 -3 -3 -3 -2 -2 -2 -2 -2 -2 -2 -2 -2 -2 -2 -2 -2 -2 -2 -2 -2 -2 -2 -2 -2 -1 -1 -1 -1 -1 -1 -0 -0
-3 -3 -3 -3 -3 -3 -3 -3 -3 -4 -3 -3 -3 -3 -3 -3 -3 -3 -3 -3 -3 -3 -3 -3 -2 -3 -3 -3 -3 -3 -3 -3 -3 -3 -3 -2 -2 -2 -2 -1 -1 -1 -1
-4 -4 -4 -4 -4 -4 -4 -4 -4 -4 -4 -4 -4 -4 -4 -4 -4 -4 -4 -4 -4 -4 -3 -3 -3 -3 -3 -3 -3 -3 -3 -3 -3 -3 -3 -3 -3 -2 -2 -2 -2 -2 -2
-4 -4 -5 -5 -5 -5 -5 -5 -5 -5 -5 -5 -5 -5 -5 -5 -5 -5 -5 -5 -4 -4 -4 -4 -4 -4 -4 -4 -4 -4 -4 -4 -4 -4 -4 -4 -3 -3 -3 -3 -3 -3 -3
-5 -5 -5 -5 -6 -6 -6 -6 -6 -6 -6 -6 -6 -6 -6 -6 -6 -6 -6 -5 -5 -5 -5 -5 -5 -5 -5 -5 -5 -5 -5 -5 -4 -4 -4 -4 -4 -4 -4 -4 -4 -4 -4
-6 -6 -6 -6 -6 -6 -6 -7 -7 -7 -7 -7 -6 -6 -6 -6 -6 -6 -6 -6 -6 -6 -6 -6 -6 -6 -5 -5 -5 -5 -5 -5 -5 -5 -5 -5 -5 -5 -4 -5 -5 -5 -5
-7 -7 -7 -7 -7 -7 -7 -7 -7 -7 -7 -7 -7 -7 -7 -7 -7 -7 -7 -7 -7 -6 -6 -6 -6 -6 -6 -6 -6 -6 -6 -6 -5 -6 -6 -5 -5 -5 -5 -5 -5 -5 -5
-8 -8 -8 -8 -8 -8 -8 -8 -8 -8 -8 -8 -8 -8 -8 -8 -8 -8 -8 -8 -7 -7 -7 -7 -7 -7 -7 -7 -7 -7 -7 -6 -6 -6 -6 -6 -6 -6 -6 -6 -6 -6 -6
-9 -9 -9 -9 -9 -9 -9 -9 -9 -9 -9 -9 -9 -9 -9 -8 -8 -8 -8 -8 -8 -8 -8 -8 -8 -7 -7 -7 -7 -7 -7 -7 -7 -7 -7 -6 -6 -6 -6 -7 -7 -7 -7
-9 -9 -10 -9 -9 -9 -9 -9 -9 -9 -9 -9 -9 -9 -9 -9 -9 -9 -9 -9 -9 -9 -9 -8 -8 -8 -8 -8 -8 -8 -8 -8 -8 -8 -8 -7 -7 -7 -7 -7 -7 -7 -7
-10 -10 -10 -10 -10 -10 -10 -10 -10 -10 -10 -10 -10 -10 -10 -10 -10 -10 -10 -10 -10 -10 -9 -9 -9 -9 -9 -9 -9 -9 -9 -9 -9 -9 -9 -8 -8 -8 -8 -8 -8 -7 -7
-11 -11 -11 -11 -11 -11 -11 -11 -11 -11 -11 -11 -11 -11 -11 -10 -10 -10 -10 -10 -10 -10 -10 -10 -10 -10 -10 -10 -9 -9 -9 -9 -9 -9 -9 -9 -9 -9 -8 -8 -8 -8 -8
-11 -11 -11 -11 -11 -11 -11 -11 -11 -11 -12 -12 -12 -11 -11 -11 -11 -11 -11 -11 -11 -10 -10 -10 -10 -10 -11 -10 -10 -10 -10 -10 -10 -10 -10 -10 -10 -10 -9 -9 -9 -9 -9
-12 -12 -12 -12 -12 -12 -12 -12 -12 -12 -12 -12 -12 -12 -12 -12 -11 -11 -11 -11 -11 -11 -11 -11 -11 -11 -11 -11 -11 -11 -11 -11 -11 -11 -11 -11 -11 -10 -10 -10 -10 -10 -10
-12 -12 -12 -13 -13 -13 -13 -13 -12 -12 -12 -12 -13 -13 -12 -12 -12 -12 -12 -12 -12 -12 -12 -12 -12 -12 -12 -11 -11 -11 -11 -11 -11 -11 -11 -11 -11 -11 -11 -11 -11 -11 -11
-13 -13 -13 -13 -13 -13 -13 -13 -13 -13 -13 -13 -13 -13 -13 -13 -12 -12 -12 -12 -12 -12 -12 -12 -12 -12 -12 -12 -12 -12 -12 -12 -12 -12 -12 -12 -12 -12 -11 -11 -11 -11 -11
-13 -13 -14 -14 -14 -14 -14 -14 -14 -14 -13 -13 -13 -13 -13 -13 -13 -13 -13 -13 -12 -12 -13 -13 -13 -12 -12 -12 -12 -12 -12 -12 -12 -12 -12 -12 -12 -12 -12 -12 -12 -12 -12
-14 -14 -14 -14 -14 -14 -14 -14 -14 -14 -14 -14 -14 -13 -13 -13 -13 -13 -13 -13 -13 -13 -13 -13 -13 -13 -13 -13 -13 -13 -13 -13 -13 -13 -13 -13 -13 -13 -13 -12 -12 -12 -12
-14 -14 -15 -15 -15 -15 -15 -15 -15 -15 -15 -15 -15 -14 -14 -14 -14 -14 -14 -14 -14 -14 -14 -14 -14 -14 -14 -13 -13 -13 -13 -13 -13 -13 -13 -13 -13 -13 -13 -13 -13 -13 -13
-15 -15 -15 -15 -15 -15 -15 -15 -15 -15 -15 -15 -15 -15 -15 -15 -15 -15 -15 -15 -14 -14 -14 -14 -14 -14 -14 -14 -14 -14 -14 -14 -14 -14 -14 -14 -14 -14 -14 -13 -13 -13 -13
-15 -15 -15 -15 -15 -15 -16 -16 -16 -16 -16 -16 -16 -15 -15 -15 -15 -15 -15 -15 -15 -15 -15 -15 -14 -14 -14 -14 -14 -14 -14 -14 -14 -14 -14 -14 -14 -14 -14 -14 -14 -14 -14
-16 -16 -16 -16 -16 -16 -16 -16 -16 -16 -16 -16 -16 -16 -16 -16 -16 -16 -15 -15 -15 -15 -15 -15 -15 -15 -15 -15 -15 -15 -15 -15 -15 -15 -15 -14 -14 -14 -14 -14 -14 -14 -14
-16 -16 -16 -16 -16 -16 -16 -16 -17 -17 -17 -16 -16 -16 -16 -16 -16 -16 -16 -16 -15 -15 -15 -15 -15 -15 -15 -15 -15 -15 -15 -15 -15 -15 -15 -15 -15 -15 -15 -15 -15 -15 -15
-17 -16 -17 -17 -17 -17 -17 -17 -17 -17 -17 -17 -17 -17 -16 -16 -16 -16 -16 -16 -16 -16 -15 -15 -15 -15 -15 -15 -15 -15 -15 -15 -15 -15 -15 -15 -15 -15 -15 -15 -15 -15 -15
-17 -17 -17 -17 -17 -17 -17 -17 -17 -17 -17 -17 -17 -17 -17 -17 -17 -17 -16 -16 -16 -16 -16 -16 -16 -15 -15 -15 -15 -15 -15 -15 -15 -15 -15 -16 -16 -16 -16 -16 -16 -16 -15
Wind_Speed
2 2 2 2 2 2 2 2 2 1 1 2 2 3 3 3 3 3 4 4 4 4 4 4 5 5 5 4 5 5 5 6 8 7 5 5 6 6 7 7 8 7 7
2 2 2 2 2 2 2 2 2 2 2 2 2 3 3 4 4 4 5 4 5 5 5 5 6 5 6 5 5 5 5 6 7 8 6 5 6 6 7 7 7 7 8
2 2 2 2 2 2 2 2 2 2 2 2 2 3 4 4 4 5 5 5 5 6 6 6 7 6 7 6 6 6 5 5 6 7 7 5 6 5 6 6 7 7 7
1 2 2 2 2 2 2 2 2 2 3 3 3 4 4 5 5 5 6 6 6 6 6 7 7 7 7 7 6 6 5 5 6 6 6 5 5 5 5 6 6 6 6
1 2 2 2 2 2 2 2 2 2 3 3 4 4 4 5 4 5 6 6 7 6 6 7 7 7 8 7 6 6 5 5 5 6 6 6 5 5 5 5 7 6 6
2 2 2 2 2 2 2 3 3 3 3 4 4 5 5 5 6 8 7 7 7 7 7 7 7 7 8 8 8 8 7 7 7 6 7 7 8 7 6 6 6 6 6
2 2 2 2 2 2 2 3 3 4 4 4 5 5 6 6 8 9 9 7 7 7 7 7 6 6 8 6 7 8 8 9 9 8 9 9 9 8 7 8 7 7 7
2 2 2 2 3 3 3 3 4 4 4 5 5 6 6 7 8 9 9 7 7 7 7 7 7 7 7 6 6 7 7 8 8 7 8 9 9 8 8 8 8 8 8
2 3 3 3 3 3 4 4 4 4 5 5 6 6 7 7 8 9 9 6 6 6 6 7 7 8 9 8 7 7 8 7 8 10 11 11 12 11 10 7 7 6 7
3 3 3 3 4 4 4 5 5 5 5 6 6 6 7 8 9 9 9 5 6 6 6 6 8 9 10 9 7 7 8 8 7 8 9 10 10 10 10 8 7 7 6
3 3 3 4 4 4 4 4 5 5 5 6 6 6 7 8 9 10 9 6 6 6 6 6 6 10 11 11 9 7 9 9 8 8 7 7 7 7 7 7 7 7 7
2 3 3 3 3 3 4 4 4 5 5 5 6 6 5 6 7 8 10 10 8 6 6 6 6 10 10 10 9 9 10 9 6 6 6 6 6 6 6 7 8 9 9
2 3 3 3 3 3 4 4 4 4 4 4 5 5 5 5 6 9 10 11 10 7 7 8 9 10 10 8 9 9 8 6 6 6 6 6 6 6 6 6 6 7 8
2 3 3 3 3 3 3 3 4 4 4 4 5 5 5 5 5 5 6 7 8 7 6 7 9 9 8 8 7 7 6 6 6 6 6 6 6 6 5 5 5 4 5
3 3 3 3 3 3 4 4 4 5 5 6 6 6 6 6 7 10 8 7 6 6 6 5 5 5 5 5 5 5 5 5 5 5 6 6 6 6 6 5 4 5 5
3 3 3 3 3 3 3 4 6 6 8 10 10 9 8 10 13 12 12 11 10 9 6 5 5 5 5 5 5 5 5 5 5 5 5 5 6 6 6 5 5 5 6
3 3 3 3 3 3 3 4 5 5 7 8 9 10 10 11 11 11 11 10 9 8 5 5 5 6 6 6 5 5 5 5 5 5 5 5 6 6 6 6 5 5 6
3 4 4 3 3 3 4 4 4 5 5 5 7 9 10 10 10 9 9 8 6 5 4 5 5 6 6 5 5 5 5 5 5 5 5 5 5 5 5 6 6 6 6
3 3 3 3 3 3 4 4 4 5 5 5 5 6 8 9 9 8 7 4 4 5 5 5 6 6 6 6 5 5 5 5 5 5 5 5 5 5 5 5 6 8 7
3 4 4 3 3 3 3 4 4 4 5 5 5 5 6 6 5 5 4 4 4 5 5 5 5 6 6 6 6 5 5 5 5 5 5 5 5 5 5 6 5 5 6
3 3 4 4 3 3 4 4 4 4 4 5 5 6 7 5 5 5 5 5 5 5 6 6 6 6 6 6 6 6 6 6 5 5 5 5 5 5 5 5 5 5 5
3 3 3 3 3 3 4 4 4 4 5 6 6 6 8 6 5 5 5 5 6 6 6 6 6 6 6 6 6 6 6 6 6 5 5 5 5 5 5 5 5 5 5
3 3 3 3 3 5 5 4 4 5 5 6 6 6 5 5 5 6 6 6 6 6 7 7 7 7 7 8 8 7 7 7 7 6 6 6 5 5 5 5 6 6 5
3 3 4 4 4 4 4 5 5 5 6 6 6 6 6 6 6 7 7 7 7 7 7 7 8 9 10 9 9 9 9 10 9 8 8 7 6 6 5 5 5 6 5
3 4 4 4 4 5 5 5 5 6 6 6 6 6 6 6 6 7 7 7 8 8 9 9 9 9 11 11 11 11 12 12 12 10 9 8 7 7 6 6 5 5 5
4 4 4 4 5 5 5 5 6 6 6 6 6 6 7 7 7 7 7 7 7 8 9 9 10 11 12 12 13 13 14 14 14 13 10 8 7 6 6 5 6 5 5
Wind_Direction
282 265 250 244 245 243 244 253 263 271 276 280 283 286 287 287 284 270 268 268 264 267 268 268 265 270 265 257 254 251 253 252 260 271 273 274 268 272 278 277 277 274 273
279 281 265 247 238 239 250 262 265 269 275 277 280 283 286 285 282 273 269 267 263 264 266 266 267 275 268 259 256 256 255 253 257 267 274 275 270 272 276 277 281 277 276
280 270 269 254 247 247 256 262 264 270 277 280 282 282 284 282 279 277 273 270 266 263 264 266 267 273 272 262 258 256 259 262 263 266 272 275 275 274 274 276 279 280 279
282 266 270 270 264 268 269 266 266 270 271 276 282 282 282 279 277 278 276 272 269 267 268 268 266 265 269 265 260 257 261 261 263 264 271 275 275 277 269 267 272 272 274
269 270 277 294 281 282 282 274 273 273 272 274 275 278 281 276 274 280 279 272 270 270 272 271 268 271 275 268 265 264 260 258 259 262 265 274 271 273 267 267 268 275 270
262 269 283 300 290 277 281 282 276 275 276 273 270 272 276 276 282 284 283 275 269 270 274 277 274 272 271 266 265 265 263 257 256 257 262 263 268 270 269 267 272 274 268
263 275 279 288 287 279 280 281 279 277 276 273 273 272 273 277 282 283 280 279 272 270 271 274 275 278 275 269 268 268 265 262 257 256 259 261 267 265 269 268 263 265 266
261 279 281 283 284 281 279 279 284 282 275 274 276 277 279 280 285 285 284 276 271 269 268 268 270 276 271 272 272 267 267 265 263 261 261 264 269 272 266 265 268 269 270
260 274 280 275 276 275 278 282 285 285 281 276 277 277 278 282 284 286 288 277 271 273 272 269 269 273 272 272 270 267 270 271 269 266 270 273 272 268 265 266 261 258 265
267 276 278 272 269 269 273 279 283 281 278 281 280 278 278 281 284 285 285 273 273 275 275 271 267 272 275 272 267 265 267 273 277 276 270 269 266 260 253 249 251 253 261
274 277 276 269 265 266 273 279 284 282 283 282 283 283 280 279 284 283 279 273 272 273 274 275 275 277 277 276 273 266 269 279 275 270 268 267 265 261 257 254 252 250 253
269 271 273 274 275 273 275 280 278 277 280 281 284 287 285 282 281 282 281 278 277 275 274 277 279 283 282 281 277 274 276 278 270 267 265 266 265 263 262 261 258 256 255
265 270 274 278 277 274 271 275 276 273 274 281 283 285 290 290 285 284 284 282 278 278 274 276 281 286 284 280 280 280 278 270 264 263 264 267 271 273 272 268 265 262 263
262 274 278 279 281 279 276 272 271 269 271 276 281 285 289 289 289 290 286 284 280 280 280 279 283 282 277 277 279 279 272 268 266 265 269 272 274 271 267 262 263 260 264
264 273 279 278 282 285 283 279 276 272 271 274 277 281 285 286 287 291 292 287 283 280 285 281 278 282 277 277 278 277 275 270 267 269 270 271 272 269 266 264 260 258 256
260 271 273 275 279 283 290 295 288 285 288 285 282 284 284 284 291 293 293 291 290 288 284 276 276 278 276 275 276 277 276 274 274 274 271 270 271 270 266 265 260 255 255
251 264 270 271 273 278 283 289 300 305 299 297 299 300 299 301 301 300 299 298 296 296 284 276 278 280 282 279 273 271 275 278 278 275 272 271 271 270 262 258 258 257 259
254 261 266 265 269 274 279 284 287 294 302 303 306 309 312 313 311 310 312 311 300 295 284 281 281 283 284 284 280 276 277 280 276 273 273 273 270 268 265 257 255 257 261
254 259 263 269 270 272 276 280 283 287 291 298 306 311 317 317 316 315 316 303 294 291 288 285 283 282 282 283 283 282 280 279 277 274 272 271 270 269 268 266 261 261 264
255 267 274 272 270 272 275 277 281 286 290 294 300 307 316 317 314 316 315 305 295 292 290 288 287 286 284 283 282 280 278 277 274 270 272 273 272 269 268 269 268 264 264
265 266 271 273 270 273 275 276 279 282 285 289 292 299 307 303 302 304 304 300 296 294 292 290 288 288 285 283 280 277 274 274 271 269 270 272 272 272 271 269 270 270 271
264 264 265 265 268 270 275 275 277 279 283 286 292 298 304 300 295 295 296 295 293 289 288 287 287 285 282 279 278 277 276 274 270 267 268 271 271 269 270 271 271 273 274
258 262 266 266 268 273 277 275 275 277 280 284 288 292 294 292 290 290 291 292 291 289 287 284 283 284 283 279 277 274 272 272 270 268 266 268 267 267 267 269 270 273 275
256 257 262 266 268 267 271 274 276 278 280 283 284 285 285 286 286 288 288 288 288 287 285 282 280 282 286 285 280 275 271 271 271 267 263 260 261 264 265 265 266 268 269
258 258 260 263 266 269 272 274 276 278 279 280 281 283 284 285 285 285 285 285 286 285 286 285 281 282 284 284 282 279 278 277 275 270 263 257 256 257 258 260 262 266 266
261 261 263 264 266 268 270 273 276 277 278 279 280 281 282 282 282 283 283 282 283 284 285 284 284 285 286 284 284 283 281 279 277 273 265 257 253 252 250 251 254 256 259
Height
1497 1497 1497 1497 1497 1496 1496 1496 1496 1496 1497 1497 1497 1496 1496 1495 1495 1495 1494 1494 1494 1494 1494 1494 1494 1494 1493 1493 1493 1493 1493 1494 1492 1491 1491 1491 1490 1489 1489 1488 1487 1487 1486
1493 1493 1493 1493 1493 1493 1492 1492 1492 1492 1492 1492 1492 1492 1491 1491 1490 1490 1489 1489 1489 1489 1489 1489 1488 1488 1488 1487 1487 1487 1488 1488 1488 1485 1485 1485 1485 1484 1484 1483 1482 1481 1481
1489 1489 1489 1489 1489 1489 1488 1488 1488 1488 1488 1488 1488 1487 1487 1486 1486 1485 1485 1484 1484 1484 1484 1483 1483 1483 1482 1482 1482 1482 1482 1482 1482 1481 1479 1480 1479 1479 1478 1478 1477 1476 1475
1485 1485 1485 1485 1485 1485 1484 1484 1484 1484 1484 1483 1483 1483 1482 1481 1481 1480 1480 1479 1479 1479 1478 1478 1477 1477 1477 1476 1476 1476 1476 1476 1476 1476 1474 1474 1474 1473 1473 1472 1470 1470 1469
1482 1481 1481 1481 1481 1481 1481 1480 1480 1480 1480 1479 1479 1478 1477 1477 1476 1475 1475 1474 1474 1473 1473 1472 1472 1471 1471 1471 1471 1471 1471 1470 1470 1469 1469 1468 1468 1468 1467 1466 1465 1464 1463
1478 1478 1477 1477 1477 1477 1477 1477 1476 1476 1475 1475 1474 1473 1473 1472 1471 1471 1470 1469 1469 1468 1467 1467 1466 1466 1465 1465 1465 1465 1465 1465 1464 1464 1463 1462 1462 1462 1462 1461 1460 1459 1457
1474 1474 1474 1473 1473 1473 1473 1473 1472 1471 1471 1470 1469 1469 1468 1467 1467 1466 1465 1464 1463 1462 1462 1461 1461 1460 1460 1459 1459 1459 1459 1459 1459 1459 1457 1456 1456 1456 1456 1455 1454 1453 1452
1470 1470 1470 1470 1469 1469 1469 1468 1468 1467 1466 1466 1465 1464 1463 1462 1462 1461 1460 1459 1458 1457 1456 1456 1455 1455 1454 1453 1453 1453 1452 1453 1453 1452 1451 1450 1450 1450 1450 1450 1449 1448 1447
1467 1466 1466 1466 1465 1465 1465 1464 1464 1463 1462 1461 1460 1459 1458 1457 1456 1456 1455 1454 1453 1452 1451 1450 1450 1449 1449 1448 1448 1447 1446 1446 1446 1446 1445 1444 1443 1444 1444 1444 1443 1442 1440
1464 1463 1463 1462 1462 1462 1461 1460 1460 1459 1458 1457 1456 1455 1453 1452 1451 1451 1450 1449 1448 1447 1446 1445 1445 1444 1444 1443 1442 1441 1439 1439 1439 1438 1438 1437 1437 1436 1437 1437 1436 1436 1434
1461 1460 1460 1459 1458 1458 1457 1457 1456 1455 1453 1452 1451 1450 1449 1448 1447 1446 1445 1445 1444 1442 1441 1440 1439 1439 1438 1437 1436 1435 1434 1434 1432 1432 1431 1430 1429 1429 1429 1429 1430 1430 1429
1457 1457 1456 1455 1455 1454 1453 1453 1452 1451 1449 1448 1447 1446 1445 1443 1442 1441 1441 1440 1439 1438 1436 1435 1434 1434 1433 1431 1430 1429 1429 1428 1427 1425 1424 1423 1422 1422 1422 1422 1422 1422 1422
1454 1453 1452 1452 1451 1450 1449 1448 1448 1447 1446 1444 1443 1442 1440 1439 1438 1437 1436 1435 1434 1433 1432 1430 1429 1428 1427 1426 1424 1423 1423 1422 1420 1419 1418 1417 1416 1415 1415 1415 1415 1415 1415
1450 1450 1449 1448 1447 1447 1446 1445 1444 1443 1442 1441 1439 1438 1436 1435 1434 1433 1432 1430 1429 1428 1427 1425 1424 1423 1422 1420 1419 1418 1417 1416 1415 1413 1412 1411 1410 1410 1409 1409 1408 1408 1408
1447 1446 1446 1445 1444 1443 1442 1441 1440 1439 1439 1438 1436 1435 1433 1431 1430 1430 1428 1426 1425 1424 1422 1421 1419 1418 1416 1415 1413 1412 1412 1411 1409 1408 1407 1406 1405 1404 1404 1403 1402 1402 1402
1444 1443 1442 1441 1440 1439 1438 1437 1436 1436 1435 1433 1432 1431 1429 1428 1426 1425 1423 1422 1421 1420 1418 1416 1414 1413 1411 1410 1408 1407 1407 1405 1404 1403 1402 1401 1400 1399 1398 1398 1397 1397 1396
1441 1440 1439 1438 1437 1436 1435 1433 1432 1431 1430 1429 1428 1426 1425 1423 1422 1420 1419 1417 1416 1415 1414 1412 1410 1409 1407 1406 1404 1403 1402 1401 1400 1399 1397 1396 1395 1394 1393 1393 1392 1392 1391
1438 1437 1436 1435 1434 1433 1432 1430 1429 1427 1425 1424 1423 1421 1420 1418 1417 1415 1414 1413 1411 1410 1409 1407 1406 1404 1403 1401 1400 1399 1397 1396 1395 1394 1393 1392 1390 1389 1388 1388 1387 1387 1386
1434 1434 1433 1432 1431 1430 1429 1427 1426 1424 1422 1420 1418 1417 1416 1414 1412 1411 1410 1409 1407 1406 1404 1403 1401 1400 1399 1397 1395 1394 1393 1391 1390 1389 1389 1387 1386 1385 1384 1383 1382 1382 1382
1431 1431 1430 1429 1428 1426 1425 1424 1422 1421 1419 1417 1415 1414 1412 1410 1408 1407 1406 1405 1403 1402 1400 1399 1397 1396 1394 1393 1391 1390 1388 1387 1386 1385 1384 1383 1382 1381 1379 1379 1378 1378 1377
1428 1427 1426 1425 1424 1423 1422 1420 1419 1417 1416 1414 1412 1411 1410 1408 1405 1404 1402 1401 1400 1398 1396 1395 1393 1391 1390 1388 1387 1385 1384 1382 1381 1380 1379 1378 1377 1376 1375 1375 1374 1374 1373
1424 1423 1423 1422 1421 1419 1418 1417 1416 1414 1412 1411 1409 1407 1406 1404 1402 1400 1399 1397 1396 1394 1392 1391 1389 1387 1385 1384 1382 1380 1379 1377 1376 1375 1374 1373 1373 1372 1372 1371 1370 1370 1369
1421 1420 1419 1418 1417 1416 1415 1414 1412 1410 1409 1407 1405 1403 1402 1400 1398 1396 1395 1393 1391 1390 1388 1386 1384 1382 1381 1379 1377 1376 1374 1373 1372 1371 1370 1369 1368 1368 1367 1367 1367 1366 1366
1418 1417 1416 1415 1414 1413 1411 1410 1408 1407 1405 1404 1402 1400 1398 1396 1394 1393 1391 1389 1387 1385 1383 1381 1380 1378 1376 1374 1373 1371 1370 1369 1367 1366 1365 1365 1364 1363 1363 1363 1363 1363 1362
1415 1414 1413 1411 1410 1409 1407 1406 1404 1403 1401 1400 1398 1396 1394 1392 1390 1388 1387 1385 1383 1381 1379 1377 1375 1373 1371 1370 1368 1367 1365 1364 1363 1362 1361 1360 1360 1359 1359 1359 1359 1359 1359
1411 1410 1409 1408 1406 1405 1404 1402 1400 1399 1397 1396 1394 1392 1390 1388 1386 1384 1382 1380 1378 1376 1374 1372 1370 1368 1366 1365 1363 1362 1360 1359 1358 1357 1357 1356 1355 1356 1356 1356 1356 1356 1356